STARLINK-32541, 61916

Orbit data source: Space-Track

STARLINK-32541, 61916 is a payload satellite owned by SpaceX/Seattle (US) in LEO that was launched on Mon, 11 Nov 2024 UTC via an FALCON 9 launch vehicle from the Air Force Eastern Test Range (AFETR). Payloads include a variety of satellites, spacecraft, and rockets equipped with specific instruments for various scientific and technological missions. These include communications satellites like Starlink; space stations such as the ISS; scientific satellites like the Hubble; Earth observation satellites from companies like Planet Labs, Umbra, and HawkEye 360; GPS; miniature CubeSats for education and research; and military/defense satellites.

Loading next visibility...
STARLINK-32541 details
Identifier
61916, 2024-207E
Orbit
LEO
Last TLE update5 hours ago
Origin
Flag of USSpaceX/Seattle (US)
ManufacturerSpaceX/Seattle
MissionOperational spacecraft
Bus & MotorSTARLINK V2M, Unknown motor
Mass730 kg wet, ~700 kg dry
Launch date (UTC)
2024-11-11 (1 week ago)
Launch vehicle
FALCON 9
Launch site
Air Force Eastern Test Range (AFETR)
Object type
Payload
Rocket body
Debris
Shape & HBRUnknown
Radar Cross SectionRCS unknown

Expand to show TLE details & history

TLE from 5 hours ago
0 STARLINK-32541
1 61916U 24207E   24326.16667824 -.00704899  00000-0 -24564-2 0  9997
2 61916  43.0029  92.9570 0001821 275.1542 227.6169 15.89935015  2521
Epoch: 2024-11-21T04:00Z
Definitive object data (Epoch: 2024-11-21T04:00:00.999Z)
Latitude24.46779°
Longitude123.27694°
Altitude303.06 km
Speed7.73 km/s
True Right ascension16h 15m 44s
True Declination24° 19' 47"
Sunlit
Object was in daylight at TLE epoch
Visualization TLE readout
Latitude-27.87235°
Longitude-63.38046°
Altitude309.598 km
Speed7.723 km/s
Apparent Right ascension00h 05m 59s
Apparent Declination-63° 26' 43"
Sunlit
Object is in full shadow
Visualization observer readout
Local Sidereal Time06:18:12
Azimuth213.644° SW
Elevation-36.316°
Doppler factor1
Orbital elements
Apogee altitude305.679 km
Perigee altitude303.245 km
Semi-major axis6,682.599 km
Eccentricity0.0001821
Inclination43.0029°
RAAN92.957°
Arg. of periapsis275.1542°
True anomaly227.60149°
Mean anomaly227.6169°
Eccentric anomaly227.60919°
Mean motion3.97306 °/min
BSTAR-0.0024564
Orbital period90.61 mins
Loading maneuver chart data...
Loading historical data...
Loading historical data...
Loading historical data...
Loading historical data...
Loading historical data...
Loading historical data...
Loading historical data...

STARLINK-32541 Visibility forecast

Observer location: undefined°, undefined

Span
Click to sort rows by Start time (UTC) header in descending order
Start Az.
Max El. time (UTC)
Max El. Az.
Max El.
End time (UTC)
End Az.
4 mins2024-11-21 12:41:12.503Z231.664° WSW2024-11-21 12:43:12.503Z156.846° SSE38.386°2024-11-21 12:45:12.503Z81.286° E
|